Airfield :
LOGIN :

Register | Disclaimer

   EN    FR    IT 

 










Legend :    VFR   Marginal VFR   IFR   Intensive IFR   Very Intensive IFR
Visi :
Ceiling :
>= 8 km
>= 3000ft
5 to 8 km
1000 to 3000 ft
1500m to 5 km
500 to 1000 ft
800 to 1500m
200 to 500 ft
< 800m
< 200 ft
Symbols :   Thunderstorms  Fog  Heavy snow  Heavy precipitations  Wind > 20 kt
SIGMETs :     Misc.  Thunderstorms  Icing  Turbulence  Mountain Waves  Volcanic Ashes







- Airport Elevation : 195 ft
- Download approach charts


LFMY - Salon de Provence

CURRENT METAR :
  • 210900Z AUTO 31009KT 270V340 CAVOK 25/18 Q1012

EXPIRED METARs :
  • 210830Z AUTO 31009KT 270V340 CAVOK 24/17 Q1012
  • 210800Z AUTO 32007KT 270V350 9999 FEW019 23/18 Q1012
  • 210730Z AUTO 35008KT CAVOK 22/18 Q1012
  • 210700Z AUTO 33007KT 300V360 CAVOK 22/18 Q1011
  • 210630Z AUTO 32004KT 280V340 CAVOK 21/18 Q1011

Expired Forecast.
No reported NOTAMs for that airfield.



MET'MAP, your aeronautical weather chart ! - Copyright ORBIFLY December 2007 - Disclaimer

ORBIFLY MET'MAP TEAM :

Programming & Development : Alexandra Zaïnal
Concept & Development : Baudouin d'Aumeries
Co-Development & Prog : Marc-Olivier Méhu
Technical & hardware support : Manuel Goepfert

Contact : metmap@orbifly.com




SOURCES & CREDITS :

   NOAA